FW8582 Weather Reports


time (UTC)temp
C
wind
direction
speed
KPH
gust
KPH
rain 1hr
cm
rain 24hr
cm
rain mn
cm
humidity
%
barometer
mb
20260507123041 8 269 1.6 8.0 0.00 1.07 0.81 98 1008.6
20260507121540 8 16 1.6 8.0 0.00 1.07 0.81 97 1008.7
20260507120047 8 255 0.0 4.8 0.03 1.07 0.81 97 1008.4
20260507114558 8 304 1.6 8.0 0.08 1.07 0.81 98 1008.6
20260507113045 8 0 0.0 6.4 0.10 1.07 0.81 98 1008.1
20260507111544 8 282 1.6 8.0 0.10 1.07 0.81 97 1008.0
20260507110042 8 309 0.0 3.2 0.08 1.04 0.79 97 1008.2
20260507104541 8 266 1.6 8.0 0.03 0.99 0.74 97 1008.3
20260507103046 8 301 1.6 6.4 0.03 0.97 0.71 97 1007.9
20260507101545 8 327 1.6 8.0 0.03 0.97 0.71 97 1007.4
20260507100045 8 302 3.2 9.7 0.03 0.97 0.71 97 1007.3
20260507094544 8 316 1.6 8.0 0.03 0.97 0.71 97 1007.5
20260507093048 8 262 3.2 9.7 0.03 0.94 0.69 97 1007.5
20260507091541 8 319 3.2 8.0 0.05 0.94 0.69 97 1007.3
20260507090045 8 262 1.6 8.0 0.08 0.94 0.69 97 1007.3
20260507084546 9 25 1.6 6.4 0.08 0.91 0.66 97 1007.0
20260507083045 9 321 1.6 8.0 0.20 0.91 0.66 98 1007.2
20260507081548 9 297 1.6 11.3 0.56 0.89 0.64 98 1006.9
20260507080044 10 238 3.2 9.7 0.61 0.86 0.61 98 1007.1
20260507074557 10 274 0.0 12.9 0.58 0.84 0.58 97 1007.1
20260507073039 10 348 4.8 19.3 0.46 0.71 0.46 96 1007.1
20260507071538 10 277 6.4 12.9 0.08 0.33 0.08 95 1007.2
20260507070048 11 0 3.2 12.9 0.00 0.25 0.00 96 1006.3
20260507064545 11 5 3.2 9.7 0.00 0.25 0.00 98 1006.1
20260507063045 11 302 1.6 6.4 0.00 0.25 0.00 98 1006.5
20260507061544 11 0 1.6 8.0 0.00 0.25 0.00 98 1006.4
20260507060043 11 288 3.2 9.7 0.00 0.25 0.00 97 1006.4
20260507054555 12 296 0.0 3.2 0.00 0.25 0.00 97 1006.7
20260507053039 12 0 1.6 6.4 0.00 0.25 0.00 98 1007.0
20260507051539 12 305 1.6 6.4 0.00 0.25 0.00 99 1007.1
20260507050050 12 259 3.2 11.3 0.00 0.25 0.00 99 1007.2
20260507044550 12 250 6.4 12.9 0.00 0.25 0.00 99 1007.3
20260507043039 12 273 0.0 11.3 0.00 0.25 0.00 99 1007.2
20260507041541 12 226 4.8 17.7 0.00 0.25 0.00 99 1007.3
20260507040046 12 254 1.6 9.7 0.00 0.25 0.00 99 1007.1
20260507034551 12 158 4.8 14.5 0.00 0.25 0.25 99 1007.3
20260507033046 12 262 4.8 16.1 0.00 0.25 0.25 99 1007.1
20260507031551 12 229 1.6 11.3 0.00 0.25 0.25 99 1007.4
20260507030053 12 273 3.2 12.9 0.00 0.25 0.25 99 1007.4
20260507024546 12 210 3.2 14.5 0.00 0.25 0.25 99 1007.3
20260507023044 12 228 3.2 14.5 0.00 0.25 0.25 99 1007.3
20260507021543 12 194 8.0 16.1 0.00 0.25 0.25 99 1007.5
20260507020040 12 232 3.2 16.1 0.00 0.25 0.25 99 1007.4
20260507014551 12 224 1.6 11.3 0.00 0.25 0.25 99 1007.3
20260507013046 12 206 4.8 11.3 0.00 0.25 0.25 99 1007.4
20260507011545 12 105 3.2 12.9 0.03 0.25 0.25 99 1007.4
20260507010052 12 0 3.2 17.7 0.03 0.25 0.25 99 1007.8
20260507004541 12 213 4.8 14.5 0.03 0.25 0.25 99 1007.8
20260507003039 12 236 3.2 14.5 0.03 0.25 0.25 99 1007.7
20260507001545 12 203 3.2 14.5 0.00 0.23 0.23 99 1007.6
20260507000045 12 124 3.2 11.3 0.00 0.23 0.23 99 1007.6
20260506234543 12 231 6.4 17.7 0.00 0.23 0.23 99 1007.6
20260506233046 11 203 8.0 20.9 0.00 0.23 0.23 99 1007.5
20260506231543 11 194 8.0 17.7 0.03 0.23 0.23 98 1007.5
20260506230038 12 235 6.4 16.1 0.03 0.23 0.23 98 1007.5
20260506224546 12 174 4.8 17.7 0.03 0.23 0.23 98 1007.5
20260506223043 12 195 3.2 16.1 0.05 0.23 0.23 98 1007.3
20260506221543 12 181 6.4 29.0 0.05 0.20 0.20 98 1007.3
20260506220044 12 178 3.2 17.7 0.08 0.20 0.20 97 1007.3
20260506214540 12 92 11.3 24.1 0.10 0.20 0.20 97 1007.5
20260506213102 12 218 6.4 24.1 0.08 0.18 0.18 97 1007.8
20260506211536 12 224 6.4 24.1 0.05 0.15 0.15 97 1007.8
20260506210045 12 214 4.8 19.3 0.03 0.13 0.13 97 1008.0
20260506204549 12 89 8.0 22.5 0.03 0.10 0.10 96 1008.1
20260506203043 12 198 8.0 24.1 0.03 0.10 0.10 96 1008.2
20260506201542 12 202 9.7 24.1 0.05 0.10 0.10 96 1008.4
20260506200048 12 174 6.4 27.4 0.08 0.10 0.10 96 1008.5
20260506194546 13 203 11.3 33.8 0.08 0.08 0.08 95 1008.7
20260506193046 13 261 6.4 24.1 0.08 0.08 0.08 95 1008.8
20260506191543 13 191 6.4 22.5 0.05 0.05 0.05 93 1009.0
20260506190044 13 155 4.8 20.9 0.00 0.00 0.00 91 1008.8
20260506184542 15 165 8.0 22.5 0.00 0.00 0.00 87 1009.0
20260506183039 15 258 6.4 24.1 0.00 0.00 0.00 84 1009.3
20260506181544 15 195 8.0 25.7 0.00 0.00 0.00 82 1009.3
20260506180055 16 152 8.0 22.5 0.00 0.00 0.00 81 1009.7
20260506174553 16 114 9.7 30.6 0.00 0.00 0.00 80 1009.6
20260506173044 17 209 12.9 33.8 0.00 0.00 0.00 78 1009.9
20260506171540 17 167 9.7 37.0 0.00 0.00 0.00 76 1010.1
20260506170050 18 252 11.3 25.7 0.00 0.00 0.00 74 1010.1
20260506164544 18 171 11.3 24.1 0.00 0.00 0.00 74 1010.2
20260506163104 18 208 11.3 24.1 0.00 0.00 0.00 75 1010.2
20260506161544 17 230 11.3 40.2 0.00 0.00 0.00 76 1010.6
20260506160043 18 197 9.7 43.5 0.00 0.00 0.00 74 1010.9
20260506154606 18 137 11.3 30.6 0.00 0.00 0.00 74 1011.0
20260506153054 19 171 9.7 32.2 0.00 0.00 0.00 71 1011.0
20260506151547 18 155 11.3 30.6 0.00 0.00 0.00 74 1010.9
20260506150044 18 158 14.5 37.0 0.00 0.00 0.00 75 1011.1
20260506144546 18 112 14.5 37.0 0.00 0.00 0.00 75 1011.4
20260506143051 18 311 9.7 27.4 0.00 0.00 0.00 76 1011.0
20260506141542 18 216 9.7 33.8 0.00 0.00 0.00 76 1011.2
20260506140036 17 212 9.7 20.9 0.00 0.00 0.00 77 1011.2
20260506134544 17 224 6.4 20.9 0.00 0.00 0.00 77 1010.9
20260506133044 17 196 4.8 33.8 0.00 0.00 0.00 79 1011.2
20260506131545 16 223 11.3 30.6 0.00 0.00 0.00 80 1011.6
20260506130044 16 139 9.7 29.0 0.00 0.00 0.00 81 1011.4
20260506124551 16 217 4.8 17.7 0.00 0.00 0.00 82 1011.5